Weather in Al Ghaydah

Yemen     16°12′36″N   52°10′57″E
temp.,
°C
wind,
m/s
gust,
m/s
humid.,
%
clouds,
%
prec.,
mm/h
press.,
hPa
HPBL,
m
27 january, thu
thu2700:00+21n22560 0.0 101563
03:00+19nnw22600 0.0 101560
06:00+19nw22620 0.0 101660
09:00+22nne01520 0.0 1018443
12:00+24ese33500 0.0 1015785
15:00+25ese55520 0.0 1014858
18:00+23ese45630 0.0 1015358
21:00+23ene34680 0.0 1016306
28 january, fri
fri2800:00+22ene237246 0.0 1015274
03:00+21nne337751 0.0 1014277
06:00+21nne227498 0.1 1016166
09:00+23ne116498 0.1 1018636
12:00+25se325518 0.0 10161006
15:00+25ese54585 0.0 1014802
18:00+23ese45663 0.0 1015464
21:00+23e33700 0.0 1017214
29 january, sat
sat2900:00+22nne227420 0.0 1016209
03:00+20nw33819 0.0 101561
06:00+19wnw11836 0.0 101756
09:00+23nnw226599 0.0 1018576
12:00+26se3251100 0.0 1016889
15:00+25se5457100 0.0 1014669
18:00+24ese456474 0.0 1016406
21:00+23e3469100 0.0 1018271
30 january, sun
sun3000:00+22n227494 0.0 1016101
03:00+20nnw3380100 0.0 101568
06:00+20nw228143 0.0 101661
09:00+23nw116613 0.0 1018515
12:00+25se435523 0.0 1015880
15:00+25ese555611 0.0 1013903
18:00+24ese446512 0.0 1014350
21:00+23ene23715 0.0 1015238
31 january, mon
mon3100:00+22n117580 0.0 1013154
03:00+21nw228191 0.0 101361
06:00+20wnw228488 0.0 101554
09:00+23n11670 0.0 1016467
12:00+25se44595 0.0 1014749
15:00+26ese455168 0.0 1012685
18:00+24se346025 0.0 1013228
21:00+23e33645 0.0 1015251